Location: Baller�as
(41.9020°N, 0.1554°W)
Time: 12:30:50
(UTC+00:00)

Cosmos 2082 Rocket - Pass Details

Date: 10 August 2020
Orbit: 835 x 852 km, 71.0° (Epoch: 21 September)

Event Time Altitude Azimuth Distance (km) Brightness Sun altitude
Rises 19:31:27 0° 166° (SSE) 3,399 5.0 -5.0°
Reaches altitude 10° 19:34:20 10° 153° (SSE) 2,467 4.2 -5.4°
Maximum altitude 19:38:44 24° 101° (ESE) 1,693 3.2 -6.2°
Drops below altitude 10° 19:43:09 10° 50° (NE) 2,472 4.4 -6.9°
Sets 19:46:02 0° 37° (NE) 3,409 5.3 -7.4°
